When you browse on this site, cookies collect data to enhance your experience and personalize the content and advertising you see.
Visit our Privacy Policy to learn more. By continuing to use the site, you agree to this use of cookies and data.
  • In Romania
  • List of Countries
  • For 7 days
  • Water Temperature
  • Satellite Maps
  • Weather Map
  • Weather Widgets
  • user-avatar
    Login

    Hourly Weather Aci Bonaccorsi

    Today, 16 February, Saturday

    Time Temperature Precipitation Wind Pressure Humidity
    00:00 +5°C° 0 mm 4 mps 740 mmHg 82%
    01:00 +4°C° 0 mm 4 mps 741 mmHg 81%
    02:00 +4°C° 0 mm 4 mps 741 mmHg 80%
    03:00 +3°C° 0 mm 4 mps 741 mmHg 78%
    04:00 +3°C° 0 mm 4 mps 741 mmHg 77%
    05:00 +3°C° 0 mm 4 mps 741 mmHg 77%
    06:00 +3°C° 0 mm 4 mps 742 mmHg 77%
    07:00 +1°C° 0 mm 4 mps 742 mmHg 77%
    08:00 +4°C° 0 mm 4 mps 742 mmHg 70%
    09:00 +6°C° 0 mm 4 mps 743 mmHg 63%
    10:00 +9°C° 0 mm 3 mps 743 mmHg 56%
    11:00 +10°C° 0 mm 3 mps 743 mmHg 53%
    12:00 +11°C° 0 mm 3 mps 744 mmHg 50%
    13:00 +12°C° 0 mm 3 mps 744 mmHg 46%
    14:00 +11°C° 0 mm 3 mps 743 mmHg 48%
    15:00 +11°C° 0 mm 3 mps 743 mmHg 50%
    16:00 +11°C° 0 mm 3 mps 743 mmHg 52%
    17:00 +9°C° 0 mm 3 mps 743 mmHg 57%
    18:00 +8°C° 0 mm 3 mps 743 mmHg 63%
    19:00 +5°C° 0 mm 3 mps 744 mmHg 69%
    20:00 +5°C° 0 mm 3 mps 744 mmHg 69%
    21:00 +4°C° 0 mm 3 mps 744 mmHg 69%
    22:00 +4°C° 0 mm 3 mps 744 mmHg 69%
    23:00 +4°C° 0 mm 3 mps 744 mmHg 69%

    Tomorrow, 17 February, Sunday

    Time Temperature Precipitation Wind Pressure Humidity
    00:00 +5°C° 0 mm 2 mps 744 mmHg 70%
    01:00 +5°C° 0 mm 2 mps 744 mmHg 70%
    02:00 +5°C° 0 mm 2 mps 744 mmHg 70%
    03:00 +4°C° 0 mm 2 mps 743 mmHg 71%
    04:00 +4°C° 0 mm 2 mps 743 mmHg 71%
    05:00 +4°C° 0 mm 2 mps 743 mmHg 71%
    06:00 +4°C° 0 mm 2 mps 743 mmHg 71%
    07:00 +4°C° 0 mm 2 mps 743 mmHg 71%
    08:00 +7°C° 0 mm 2 mps 744 mmHg 64%
    09:00 +9°C° 0 mm 2 mps 744 mmHg 57%
    10:00 +13°C° 0 mm 1 mps 744 mmHg 50%
    11:00 +14°C° 0 mm 1 mps 744 mmHg 48%
    12:00 +15°C° 0 mm 1 mps 744 mmHg 46%
    13:00 +16°C° 0 mm 1 mps 744 mmHg 44%
    14:00 +15°C° 0 mm 1 mps 743 mmHg 47%
    15:00 +15°C° 0 mm 1 mps 743 mmHg 50%
    16:00 +14°C° 0 mm 2 mps 743 mmHg 53%
    17:00 +12°C° 0 mm 1 mps 743 mmHg 61%
    18:00 +10°C° 0 mm 1 mps 743 mmHg 69%
    19:00 +9°C° 0 mm 1 mps 743 mmHg 77%
    20:00 +8°C° 0 mm 1 mps 743 mmHg 78%
    21:00 +8°C° 0 mm 1 mps 743 mmHg 78%
    22:00 +7°C° 0 mm 2 mps 743 mmHg 79%
    23:00 +6°C° 0 mm 2 mps 743 mmHg 78%

    Day after tomorrow, 18 February, Monday

    Time Temperature Precipitation Wind Pressure Humidity
    00:00 +6°C° 0 mm 2 mps 742 mmHg 77%
    01:00 +6°C° 0 mm 2 mps 742 mmHg 76%
    02:00 +6°C° 0 mm 2 mps 742 mmHg 75%
    03:00 +6°C° 0 mm 2 mps 742 mmHg 73%
    04:00 +5°C° 0 mm 2 mps 741 mmHg 72%
    05:00 +5°C° 0 mm 2 mps 741 mmHg 72%
    06:00 +5°C° 0 mm 2 mps 741 mmHg 72%
    07:00 +5°C° 0 mm 2 mps 742 mmHg 72%
    08:00 +8°C° 0 mm 2 mps 742 mmHg 65%
    09:00 +11°C° 0 mm 1 mps 742 mmHg 57%
    10:00 +14°C° 0 mm 1 mps 742 mmHg 50%
    11:00 +15°C° 0 mm 1 mps 742 mmHg 48%
    12:00 +15°C° 0 mm 1 mps 742 mmHg 45%
    13:00 +16°C° 0 mm 2 mps 742 mmHg 43%
    14:00 +16°C° 0 mm 2 mps 741 mmHg 46%
    15:00 +15°C° 0 mm 2 mps 741 mmHg 49%
    16:00 +15°C° 0 mm 2 mps 740 mmHg 52%
    17:00 +13°C° 0 mm 1 mps 740 mmHg 61%
    18:00 +11°C° 0 mm 1 mps 740 mmHg 70%
    19:00 +9°C° 0 mm 1 mps 741 mmHg 79%
    20:00 +9°C° 0 mm 1 mps 741 mmHg 80%
    21:00 +8°C° 0 mm 1 mps 741 mmHg 81%
    22:00 +7°C° 0 mm 2 mps 741 mmHg 82%
    23:00 +7°C° 0 mm 2 mps 741 mmHg 82%

    19 February, Tuesday

    Time Temperature Precipitation Wind Pressure Humidity
    00:00 +7°C° 0 mm 2 mps 741 mmHg 81%
    01:00 +7°C° 0 mm 2 mps 741 mmHg 81%
    02:00 +6°C° 0 mm 2 mps 741 mmHg 81%
    03:00 +6°C° 0 mm 2 mps 741 mmHg 81%
    04:00 +6°C° 0 mm 2 mps 740 mmHg 81%
    05:00 +6°C° 0 mm 2 mps 741 mmHg 81%
    06:00 +6°C° 0 mm 2 mps 741 mmHg 81%
    07:00 +6°C° 0 mm 2 mps 741 mmHg 81%
    08:00 +9°C° 0 mm 1 mps 741 mmHg 73%
    09:00 +11°C° 0 mm 1 mps 742 mmHg 65%
    10:00 +14°C° 0 mm 1 mps 742 mmHg 57%
    11:00 +15°C° 0 mm 1 mps 742 mmHg 53%
    12:00 +15°C° 0 mm 2 mps 741 mmHg 50%
    13:00 +16°C° 0 mm 2 mps 741 mmHg 47%
    14:00 +16°C° 0 mm 2 mps 741 mmHg 49%
    15:00 +16°C° 0 mm 2 mps 741 mmHg 51%
    16:00 +15°C° 0 mm 2 mps 740 mmHg 53%
    17:00 +13°C° 0 mm 2 mps 741 mmHg 62%
    18:00 +11°C° 0 mm 1 mps 741 mmHg 71%
    19:00 +9°C° 0 mm 1 mps 741 mmHg 80%
    20:00 +9°C° 0 mm 1 mps 741 mmHg 81%
    21:00 +8°C° 0 mm 1 mps 741 mmHg 82%
    22:00 +8°C° 0 mm 1 mps 741 mmHg 83%
    23:00 +8°C° 0 mm 1 mps 741 mmHg 83%

    20 February, Wednesday

    Time Temperature Precipitation Wind Pressure Humidity
    00:00 +8°C° 0 mm 1 mps 741 mmHg 82%
    01:00 +8°C° 0 mm 1 mps 741 mmHg 82%
    02:00 +7°C° 0 mm 1 mps 741 mmHg 82%
    03:00 +6°C° 0 mm 2 mps 741 mmHg 82%
    04:00 +6°C° 0 mm 2 mps 741 mmHg 81%
    05:00 +6°C° 0 mm 2 mps 741 mmHg 81%
    06:00 +6°C° 0 mm 2 mps 741 mmHg 81%
    07:00 +6°C° 0 mm 2 mps 741 mmHg 81%
    08:00 +9°C° 0 mm 1 mps 741 mmHg 73%
    09:00 +12°C° 0 mm 1 mps 742 mmHg 64%
    10:00 +13°C° 0 mm 0 mps 742 mmHg 56%
    11:00 +15°C° 0 mm 1 mps 742 mmHg 53%
    12:00 +15°C° 0 mm 2 mps 742 mmHg 50%
    13:00 +16°C° 0 mm 3 mps 741 mmHg 47%
    14:00 +16°C° 0 mm 3 mps 741 mmHg 49%
    15:00 +14°C° 0 mm 3 mps 741 mmHg 52%
    16:00 +15°C° 0 mm 2 mps 741 mmHg 54%
    17:00 +13°C° 0 mm 2 mps 741 mmHg 62%
    18:00 +11°C° 0 mm 1 mps 741 mmHg 69%
    19:00 +9°C° 0 mm 1 mps 741 mmHg 77%
    20:00 +8°C° 0 mm 1 mps 741 mmHg 76%
    21:00 +8°C° 0 mm 1 mps 741 mmHg 76%
    22:00 +8°C° 0 mm 1 mps 742 mmHg 76%
    23:00 +8°C° 0 mm 1 mps 742 mmHg 74%

    21 February, Thursday

    Time Temperature Precipitation Wind Pressure Humidity
    00:00 +8°C° 0 mm 1 mps 742 mmHg 72%
    01:00 +8°C° 0 mm 1 mps 742 mmHg 69%
    02:00 +8°C° 0 mm 1 mps 741 mmHg 68%
    03:00 +8°C° 0 mm 1 mps 741 mmHg 66%
    04:00 +8°C° 0 mm 1 mps 741 mmHg 65%
    05:00 +8°C° 0 mm 1 mps 741 mmHg 66%
    06:00 +9°C° 0 mm 1 mps 741 mmHg 68%
    07:00 +8°C° 0 mm 2 mps 741 mmHg 69%
    08:00 +9°C° 0 mm 2 mps 741 mmHg 68%
    09:00 +10°C° 0 mm 3 mps 741 mmHg 67%
    10:00 +12°C° 0 mm 3 mps 742 mmHg 66%
    11:00 +12°C° 0 mm 3 mps 741 mmHg 66%
    12:00 +12°C° 0 mm 3 mps 741 mmHg 66%
    13:00 +12°C° 0 mm 3 mps 741 mmHg 65%
    14:00 +12°C° 0.1 mm 3 mps 741 mmHg 69%
    15:00 +12°C° 0.1 mm 3 mps 741 mmHg 73%
    16:00 +12°C° 0.1 mm 2 mps 741 mmHg 77%
    17:00 +10°C° 0.1 mm 2 mps 741 mmHg 81%
    18:00 +11°C° 0.1 mm 1 mps 741 mmHg 85%
    19:00 +10°C° 0.1 mm 1 mps 741 mmHg 89%
    20:00 +10°C° 0.1 mm 1 mps 741 mmHg 89%
    21:00 +10°C° 0.1 mm 1 mps 741 mmHg 89%
    22:00 +8°C° 0.1 mm 0 mps 741 mmHg 89%
    23:00 +9°C° 0.1 mm 1 mps 741 mmHg 89%
    Show more